Change the Weather History Date:

Saturday, August 2, 2014

  Actual Average Record
Temperature  
Mean Temperature 82 °F -  
Max Temperature 99 °F 94 °F 105 °F (1993)
Min Temperature 64 °F 60 °F 53 °F (2013)
Degree Days  
Heating Degree Days 0 0  
Month to date heating degree days 0 0  
Since 1 June heating degree days 0 7  
Since 1 July heating degree days 0 0  
Cooling Degree Days 17 12  
Month to date cooling degree days 37 24  
Year to date cooling degree days 924 736  
Since 1 June cooling degree days 741 617  
Growing Degree Days 32 (Base 50)    
Moisture  
Dew Point 55 °F    
Average Humidity 49    
Maximum Humidity 73    
Minimum Humidity 24    
Precipitation  
Precipitation 0.00 in 0.00 in 0.00 in (2015)
Month to date precipitation 0.00 0.00  
Year to date precipitation 5.80 9.03  
Since 1 July precipitation 0.00 T  
Snow  
Snow 0.00 in - - ()
Month to date snowfall 0.0  
Since 1 June snowfall 0.0  
Since 1 July snowfall 0.0  
Snow Depth -    
Sea Level Pressure  
Sea Level Pressure 29.84 in    
Wind  
Wind Speed 8 mph (NW)    
Max Wind Speed 16 mph    
Max Gust Speed 21 mph    
Visibility 10 miles    
Events      
T = Trace of Precipitation, MM = Missing Value Source: NWS Daily Summary

Daily Weather History Graph

Daily Weather History Graph

Search for Another Location

Airport or City:

Trip Planner

Search our weather history database for the weather conditions in past years. The results will help you decide how hot, cold, wet, or windy it might be!

Date:

Astronomy

Aug. 02, 2014 Rise Set
Actual Time 6:09 AM PDT 8:12 PM PDT
Civil Twilight 5:40 AM PDT 8:41 PM PDT
Nautical Twilight 5:04 AM PDT 9:16 PM PDT
Astronomical Twilight 4:26 AM PDT 9:55 PM PDT
Moon 12:28 PM PDT (8/2) 11:42 PM PDT (8/2)
Length of Visible Light 15h 01m
Length of Day
14h 03m
Waxing Crescent, 38% of the Moon is Illuminated
Aug 2
Waxing Crescent
Aug 3
First Quarter
Aug 10
Full
Aug 17
Last Quarter
Aug 25
New

Hourly Weather History & Observations

Time (PDT) Temp. Heat Index Dew Point Humidity Pressure Visibility Wind Dir Wind Speed Gust Speed Precip Events Conditions
12:55 AM 73.9 °F - 54.0 °F 50% 29.83 in 10.0 mi NW 8.1 mph - N/A   Clear
1:55 AM 72.0 °F - 53.1 °F 51% 29.82 in 10.0 mi NW 5.8 mph - N/A   Clear
2:55 AM 69.1 °F - 53.1 °F 57% 29.83 in 10.0 mi NE 4.6 mph - N/A   Clear
3:55 AM 66.0 °F - 54.0 °F 65% 29.83 in 10.0 mi NNE 6.9 mph - N/A   Clear
4:55 AM 66.0 °F - 55.0 °F 68% 29.83 in 10.0 mi North 5.8 mph - N/A   Clear
5:55 AM 66.0 °F - 57.0 °F 73% 29.84 in 10.0 mi North 5.8 mph - N/A   Clear
6:55 AM 66.9 °F - 57.0 °F 70% 29.85 in 10.0 mi North 8.1 mph - N/A   Clear
7:55 AM 69.1 °F - 57.9 °F 68% 29.87 in 10.0 mi North 6.9 mph - N/A   Clear
8:55 AM 73.9 °F - 57.0 °F 55% 29.88 in 10.0 mi NNW 5.8 mph - N/A   Clear
9:55 AM 81.0 °F 80.7 °F 55.0 °F 41% 29.88 in 10.0 mi North 6.9 mph - N/A   Clear
10:55 AM 84.0 °F 82.9 °F 55.0 °F 37% 29.88 in 10.0 mi WNW 6.9 mph - N/A   Clear
11:55 AM 88.0 °F 85.7 °F 53.1 °F 30% 29.88 in 10.0 mi NW 8.1 mph - N/A   Clear
12:55 PM 93.0 °F 90.8 °F 54.0 °F 27% 29.86 in 10.0 mi NW 12.7 mph - N/A   Clear
1:55 PM 93.0 °F 91.4 °F 55.9 °F 29% 29.86 in 10.0 mi NW 5.8 mph - N/A   Clear
2:55 PM 97.0 °F 94.6 °F 53.1 °F 23% 29.84 in 10.0 mi West 15.0 mph - N/A   Clear
3:55 PM 97.0 °F 94.6 °F 54.0 °F 23% 29.82 in 10.0 mi WNW 12.7 mph 20.7 mph N/A   Clear
4:55 PM 97.0 °F 95.0 °F 55.0 °F 24% 29.80 in 10.0 mi WNW 12.7 mph 20.7 mph N/A   Clear
5:55 PM 96.1 °F 94.5 °F 55.9 °F 26% 29.80 in 10.0 mi WNW 13.8 mph 20.7 mph N/A   Clear
6:55 PM 91.9 °F 89.5 °F 54.0 °F 27% 29.80 in 10.0 mi WNW 15.0 mph - N/A   Clear
7:55 PM 87.1 °F 85.1 °F 54.0 °F 32% 29.81 in 10.0 mi WNW 12.7 mph - N/A   Clear
8:55 PM 82.9 °F 82.4 °F 57.0 °F 41% 29.83 in 10.0 mi NW 9.2 mph - N/A   Clear
9:55 PM 79.0 °F - 57.0 °F 47% 29.84 in 10.0 mi NNW 9.2 mph - N/A   Clear
10:55 PM 78.1 °F - 55.0 °F 45% 29.84 in 10.0 mi WNW 8.1 mph - N/A   Clear
11:55 PM 71.1 °F - 57.0 °F 61% 29.85 in 10.0 mi West 5.8 mph - N/A   Clear